����������;��������(kVARh)
2017-08-14 00:00;5,6
2017-08-14 00:15;5,3
2017-08-14 00:30;6,3
2017-08-14 00:45;6,25
2017-08-14 01:00;5,8
2017-08-14 01:15;3,85
2017-08-14 01:30;4
2017-08-14 01:45;3,3
2017-08-14 02:00;4
2017-08-14 02:15;2,35
2017-08-14 02:30;4
2017-08-14 02:45;3,65
2017-08-14 03:00;4,3
2017-08-14 03:15;4,05
2017-08-14 03:30;5
2017-08-14 03:45;6,15
2017-08-14 04:00;3,65
2017-08-14 04:15;5,45
2017-08-14 04:30;3,45
2017-08-14 04:45;5,8
2017-08-14 05:00;3,3
2017-08-14 05:15;5,3
2017-08-14 05:30;3,55
2017-08-14 05:45;3,55
2017-08-14 06:00;3,15
2017-08-14 06:15;2,7
2017-08-14 06:30;4,45
2017-08-14 06:45;2,95
2017-08-14 07:00;4,2
2017-08-14 07:15;4,6
2017-08-14 07:30;4,2
2017-08-14 07:45;7,55
2017-08-14 08:00;7,65
2017-08-14 08:15;3,95
2017-08-14 08:30;3,75
2017-08-14 08:45;5,8
2017-08-14 09:00;7,8
2017-08-14 09:15;3,4
2017-08-14 09:30;3,8
2017-08-14 09:45;5,7
2017-08-14 10:00;3,75
2017-08-14 10:15;6,95
2017-08-14 10:30;6,55
2017-08-14 10:45;9,45
2017-08-14 11:00;7,55
2017-08-14 11:15;10,25
2017-08-14 11:30;9,15
2017-08-14 11:45;10,65
2017-08-14 12:00;9,55
2017-08-14 12:15;10,2
2017-08-14 12:30;10,75
2017-08-14 12:45;8,65
2017-08-14 13:00;8,2
2017-08-14 13:15;9,05
2017-08-14 13:30;8,5
2017-08-14 13:45;7,95
2017-08-14 14:00;11,2
2017-08-14 14:15;9,25
2017-08-14 14:30;9,4
2017-08-14 14:45;9,15
2017-08-14 15:00;9,55
2017-08-14 15:15;9,3
2017-08-14 15:30;10,1
2017-08-14 15:45;8,9
2017-08-14 16:00;9
2017-08-14 16:15;8,7
2017-08-14 16:30;9,8
2017-08-14 16:45;13,7
2017-08-14 17:00;11,65
2017-08-14 17:15;12,05
2017-08-14 17:30;13,55
2017-08-14 17:45;13,55
2017-08-14 18:00;13,65
2017-08-14 18:15;11,1
2017-08-14 18:30;11,2
2017-08-14 18:45;13,2
2017-08-14 19:00;13,6
2017-08-14 19:15;12,85
2017-08-14 19:30;12,15
2017-08-14 19:45;10,95
2017-08-14 20:00;10,4
2017-08-14 20:15;9,3
2017-08-14 20:30;9,9
2017-08-14 20:45;5,7
2017-08-14 21:00;6,25
2017-08-14 21:15;8,35
2017-08-14 21:30;4,75
2017-08-14 21:45;4,3
2017-08-14 22:00;4,75
2017-08-14 22:15;8,7
2017-08-14 22:30;7,6
2017-08-14 22:45;7,3
2017-08-14 23:00;10,9
2017-08-14 23:15;7
2017-08-14 23:30;7,95
2017-08-14 23:45;7,75
2017-08-15 00:00;8,3
2017-08-15 00:15;10
2017-08-15 00:30;9,95
2017-08-15 00:45;7,7
2017-08-15 01:00;4,7
2017-08-15 01:15;5,9
2017-08-15 01:30;3,85
2017-08-15 01:45;2,7
2017-08-15 02:00;3,1
2017-08-15 02:15;3,2
2017-08-15 02:30;3,4
2017-08-15 02:45;5
2017-08-15 03:00;4,6
2017-08-15 03:15;4,5
2017-08-15 03:30;5,15
2017-08-15 03:45;5,35
2017-08-15 04:00;6,8
2017-08-15 04:15;6,55
2017-08-15 04:30;5,8
2017-08-15 04:45;7,45
2017-08-15 05:00;6
2017-08-15 05:15;7,3
2017-08-15 05:30;6,05
2017-08-15 05:45;7,2
2017-08-15 06:00;6,65
2017-08-15 06:15;6,15
2017-08-15 06:30;7,7
2017-08-15 06:45;6,75
2017-08-15 07:00;7,5
2017-08-15 07:15;11
2017-08-15 07:30;7,6
2017-08-15 07:45;9,85
2017-08-15 08:00;8,25
2017-08-15 08:15;7,3
2017-08-15 08:30;8,15
2017-08-15 08:45;5,05
2017-08-15 09:00;6,15
2017-08-15 09:15;4,15
2017-08-15 09:30;6,5
2017-08-15 09:45;8,75
2017-08-15 10:00;9,55
2017-08-15 10:15;10,45
2017-08-15 10:30;8,35
2017-08-15 10:45;9,05
2017-08-15 11:00;6,75
2017-08-15 11:15;7
2017-08-15 11:30;7,4
2017-08-15 11:45;6,6
2017-08-15 12:00;7,2
2017-08-15 12:15;5,55
2017-08-15 12:30;7,75
2017-08-15 12:45;5,7
2017-08-15 13:00;7,8
2017-08-15 13:15;5
2017-08-15 13:30;6,25
2017-08-15 13:45;7,85
2017-08-15 14:00;8,3
2017-08-15 14:15;8,25
2017-08-15 14:30;8,1
2017-08-15 14:45;8,3
2017-08-15 15:00;9,35
2017-08-15 15:15;8,4
2017-08-15 15:30;8,25
2017-08-15 15:45;8,55
2017-08-15 16:00;9,4
2017-08-15 16:15;9,7
2017-08-15 16:30;9,05
2017-08-15 16:45;8,55
2017-08-15 17:00;9,95
2017-08-15 17:15;8,5
2017-08-15 17:30;8,25
2017-08-15 17:45;8,85
2017-08-15 18:00;8
2017-08-15 18:15;6,65
2017-08-15 18:30;6,6
2017-08-15 18:45;6,05
2017-08-15 19:00;5,95
2017-08-15 19:15;5,2
2017-08-15 19:30;3,95
2017-08-15 19:45;4,35
2017-08-15 20:00;4,6
2017-08-15 20:15;3,5
2017-08-15 20:30;4,1
2017-08-15 20:45;2,1
2017-08-15 21:00;2,1
2017-08-15 21:15;0,55
2017-08-15 21:30;0,4
2017-08-15 21:45;0,2
2017-08-15 22:00;0,85
2017-08-15 22:15;4,5
2017-08-15 22:30;3,9
2017-08-15 22:45;3,5
2017-08-15 23:00;9,3
2017-08-15 23:15;10,75
2017-08-15 23:30;11,1
2017-08-15 23:45;11,55
2017-08-16 00:00;12,9
2017-08-16 00:15;13,15
2017-08-16 00:30;12,9
2017-08-16 00:45;11,15
2017-08-16 01:00;13,45
2017-08-16 01:15;13,05
2017-08-16 01:30;11,95
2017-08-16 01:45;13,25
2017-08-16 02:00;12,15
2017-08-16 02:15;12,45
2017-08-16 02:30;13,7
2017-08-16 02:45;13,2
2017-08-16 03:00;14,15
2017-08-16 03:15;14,9
2017-08-16 03:30;15,1
2017-08-16 03:45;15,1
2017-08-16 04:00;14,8
2017-08-16 04:15;16,1
2017-08-16 04:30;15,95
2017-08-16 04:45;15,7
2017-08-16 05:00;14,8
2017-08-16 05:15;14,85
2017-08-16 05:30;15,15
2017-08-16 05:45;11,8
2017-08-16 06:00;13,6
2017-08-16 06:15;11
2017-08-16 06:30;12,35
2017-08-16 06:45;13,1
2017-08-16 07:00;11,35
2017-08-16 07:15;15,3
2017-08-16 07:30;12,75
2017-08-16 07:45;15,4
2017-08-16 08:00;12,15
2017-08-16 08:15;11,5
2017-08-16 08:30;9,75
2017-08-16 08:45;9,85
2017-08-16 09:00;7,8
2017-08-16 09:15;10,2
2017-08-16 09:30;13,05
2017-08-16 09:45;10,05
2017-08-16 10:00;11,65
2017-08-16 10:15;10,65
2017-08-16 10:30;9
2017-08-16 10:45;10,3
2017-08-16 11:00;12,9
2017-08-16 11:15;15,55
2017-08-16 11:30;13,9
2017-08-16 11:45;14,05
2017-08-16 12:00;14,55
2017-08-16 12:15;14,15
2017-08-16 12:30;15,25
2017-08-16 12:45;15,05
2017-08-16 13:00;15,95
2017-08-16 13:15;14,7
2017-08-16 13:30;16,6
2017-08-16 13:45;14,95
2017-08-16 14:00;14,6
2017-08-16 14:15;17,65
2017-08-16 14:30;16,4
2017-08-16 14:45;19,3
2017-08-16 15:00;19,5
2017-08-16 15:15;20,05
2017-08-16 15:30;19,35
2017-08-16 15:45;21,85
2017-08-16 16:00;21,95
2017-08-16 16:15;22,3
2017-08-16 16:30;21,95
2017-08-16 16:45;23,75
2017-08-16 17:00;23,9
2017-08-16 17:15;18,9
2017-08-16 17:30;18,05
2017-08-16 17:45;16,55
2017-08-16 18:00;15,9
2017-08-16 18:15;17
2017-08-16 18:30;16,1
2017-08-16 18:45;14,5
2017-08-16 19:00;14,25
2017-08-16 19:15;11,3
2017-08-16 19:30;10,85
2017-08-16 19:45;11,15
2017-08-16 20:00;13,15
2017-08-16 20:15;11,7
2017-08-16 20:30;11,6
2017-08-16 20:45;10,3
2017-08-16 21:00;10,85
2017-08-16 21:15;11,65
2017-08-16 21:30;11,35
2017-08-16 21:45;12,25
2017-08-16 22:00;9,5
2017-08-16 22:15;12,65
2017-08-16 22:30;12,35
2017-08-16 22:45;13,4
2017-08-16 23:00;10,15
2017-08-16 23:15;6,6
2017-08-16 23:30;6
2017-08-16 23:45;6,15
2017-08-17 00:00;6,3
2017-08-17 00:15;7,75
2017-08-17 00:30;5
2017-08-17 00:45;4,6
2017-08-17 01:00;3,4
2017-08-17 01:15;2,75
2017-08-17 01:30;3,45
2017-08-17 01:45;5,55
2017-08-17 02:00;5,05
2017-08-17 02:15;4,6
2017-08-17 02:30;7,15
2017-08-17 02:45;12,2
2017-08-17 03:00;13,7
2017-08-17 03:15;11,65
2017-08-17 03:30;13,6
2017-08-17 03:45;12,15
2017-08-17 04:00;13
2017-08-17 04:15;14,65
2017-08-17 04:30;13,2
2017-08-17 04:45;12,45
2017-08-17 05:00;13,5
2017-08-17 05:15;14,4
2017-08-17 05:30;12,25
2017-08-17 05:45;13,8
2017-08-17 06:00;12,35
2017-08-17 06:15;13,3
2017-08-17 06:30;13,45
2017-08-17 06:45;11,3
2017-08-17 07:00;12,3
2017-08-17 07:15;13,7
2017-08-17 07:30;16,75
2017-08-17 07:45;14,45
2017-08-17 08:00;14,2
2017-08-17 08:15;13,45
2017-08-17 08:30;17,05
2017-08-17 08:45;19,75
2017-08-17 09:00;18,4
2017-08-17 09:15;17,8
2017-08-17 09:30;16,9
2017-08-17 09:45;16,45
2017-08-17 10:00;13,8
2017-08-17 10:15;13,95
2017-08-17 10:30;13,05
2017-08-17 10:45;11,55
2017-08-17 11:00;11,95
2017-08-17 11:15;12,1
2017-08-17 11:30;13,3
2017-08-17 11:45;11,6
2017-08-17 12:00;14,1
2017-08-17 12:15;13,9
2017-08-17 12:30;14,1
2017-08-17 12:45;11,2
2017-08-17 13:00;13,5
2017-08-17 13:15;13,2
2017-08-17 13:30;12,15
2017-08-17 13:45;13
2017-08-17 14:00;13,2
2017-08-17 14:15;14,05
2017-08-17 14:30;14,85
2017-08-17 14:45;14,65
2017-08-17 15:00;15,8
2017-08-17 15:15;15,4
2017-08-17 15:30;18,5
2017-08-17 15:45;16,5
2017-08-17 16:00;13,9
2017-08-17 16:15;16,15
2017-08-17 16:30;16,7
2017-08-17 16:45;20,3
2017-08-17 17:00;20,2
2017-08-17 17:15;21,4
2017-08-17 17:30;21,6
2017-08-17 17:45;20,6
2017-08-17 18:00;18,35
2017-08-17 18:15;17,85
2017-08-17 18:30;15,75
2017-08-17 18:45;18,95
2017-08-17 19:00;14,95
2017-08-17 19:15;12,95
2017-08-17 19:30;13,25
2017-08-17 19:45;10,7
2017-08-17 20:00;9,15
2017-08-17 20:15;7,2
2017-08-17 20:30;7,9
2017-08-17 20:45;5,15
2017-08-17 21:00;8
2017-08-17 21:15;7,7
2017-08-17 21:30;9,35
2017-08-17 21:45;8,95
2017-08-17 22:00;11,2
2017-08-17 22:15;14,2
2017-08-17 22:30;10,1
2017-08-17 22:45;9,9
2017-08-17 23:00;6,55
2017-08-17 23:15;3,45
2017-08-17 23:30;3,4
2017-08-17 23:45;10,4
2017-08-18 00:00;11,45
2017-08-18 00:15;13,75
2017-08-18 00:30;11,6
2017-08-18 00:45;13,15
2017-08-18 01:00;14,3
2017-08-18 01:15;14,4
2017-08-18 01:30;11,5
2017-08-18 01:45;8,95
2017-08-18 02:00;10,35
2017-08-18 02:15;10,75
2017-08-18 02:30;11
2017-08-18 02:45;11,45
2017-08-18 03:00;11,7
2017-08-18 03:15;12,7
2017-08-18 03:30;12,35
2017-08-18 03:45;13,3
2017-08-18 04:00;13,15
2017-08-18 04:15;14,15
2017-08-18 04:30;14,35
2017-08-18 04:45;14,45
2017-08-18 05:00;14,5
2017-08-18 05:15;14,2
2017-08-18 05:30;14,5
2017-08-18 05:45;13,75
2017-08-18 06:00;13,85
2017-08-18 06:15;13,6
2017-08-18 06:30;13,7
2017-08-18 06:45;13
2017-08-18 07:00;13,4
2017-08-18 07:15;15,7
2017-08-18 07:30;13,95
2017-08-18 07:45;14,5
2017-08-18 08:00;12,6
2017-08-18 08:15;10,45
2017-08-18 08:30;9,75
2017-08-18 08:45;13,95
2017-08-18 09:00;13,2
2017-08-18 09:15;12,5
2017-08-18 09:30;14,8
2017-08-18 09:45;13,55
2017-08-18 10:00;13
2017-08-18 10:15;12,8
2017-08-18 10:30;13,75
2017-08-18 10:45;15,95
2017-08-18 11:00;16,05
2017-08-18 11:15;15,4
2017-08-18 11:30;19
2017-08-18 11:45;21,4
2017-08-18 12:00;20,7
2017-08-18 12:15;20,3
2017-08-18 12:30;19,45
2017-08-18 12:45;20,75
2017-08-18 13:00;18,55
2017-08-18 13:15;19,65
2017-08-18 13:30;18,3
2017-08-18 13:45;18,8
2017-08-18 14:00;17,8
2017-08-18 14:15;17,6
2017-08-18 14:30;20,65
2017-08-18 14:45;19,95
2017-08-18 15:00;19,05
2017-08-18 15:15;21,15
2017-08-18 15:30;20,5
2017-08-18 15:45;19,2
2017-08-18 16:00;21,3
2017-08-18 16:15;23,1
2017-08-18 16:30;21,1
2017-08-18 16:45;25
2017-08-18 17:00;24,95
2017-08-18 17:15;24,35
2017-08-18 17:30;24,05
2017-08-18 17:45;22,9
2017-08-18 18:00;23,05
2017-08-18 18:15;20,95
2017-08-18 18:30;18,95
2017-08-18 18:45;19
2017-08-18 19:00;14,75
2017-08-18 19:15;11,75
2017-08-18 19:30;12,5
2017-08-18 19:45;10,1
2017-08-18 20:00;10,3
2017-08-18 20:15;8,95
2017-08-18 20:30;8,8
2017-08-18 20:45;7,65
2017-08-18 21:00;8,3
2017-08-18 21:15;8,6
2017-08-18 21:30;12,7
2017-08-18 21:45;12,85
2017-08-18 22:00;16,25
2017-08-18 22:15;19,55
2017-08-18 22:30;17,8
2017-08-18 22:45;14,5
2017-08-18 23:00;10,55
2017-08-18 23:15;6,25
2017-08-18 23:30;13,9
2017-08-18 23:45;12,8
2017-08-19 00:00;11,65
2017-08-19 00:15;11
2017-08-19 00:30;10,8
2017-08-19 00:45;11,7
2017-08-19 01:00;11,85
2017-08-19 01:15;12
2017-08-19 01:30;12,6
2017-08-19 01:45;15
2017-08-19 02:00;16,45
2017-08-19 02:15;14,9
2017-08-19 02:30;10,2
2017-08-19 02:45;6,6
2017-08-19 03:00;8,2
2017-08-19 03:15;7,1
2017-08-19 03:30;6,9
2017-08-19 03:45;7,3
2017-08-19 04:00;7,2
2017-08-19 04:15;7,45
2017-08-19 04:30;8,85
2017-08-19 04:45;7,5
2017-08-19 05:00;9,1
2017-08-19 05:15;8,5
2017-08-19 05:30;8,1
2017-08-19 05:45;7,2
2017-08-19 06:00;7,5
2017-08-19 06:15;7,05
2017-08-19 06:30;7,5
2017-08-19 06:45;8,95
2017-08-19 07:00;7,55
2017-08-19 07:15;8,1
2017-08-19 07:30;6,75
2017-08-19 07:45;7,65
2017-08-19 08:00;8,85
2017-08-19 08:15;12,4
2017-08-19 08:30;14,8
2017-08-19 08:45;13,2
2017-08-19 09:00;13,4
2017-08-19 09:15;13,2
2017-08-19 09:30;10,7
2017-08-19 09:45;9,4
2017-08-19 10:00;9,15
2017-08-19 10:15;8,35
2017-08-19 10:30;11,7
2017-08-19 10:45;12,65
2017-08-19 11:00;12,9
2017-08-19 11:15;15,05
2017-08-19 11:30;18
2017-08-19 11:45;16,9
2017-08-19 12:00;16,55
2017-08-19 12:15;15,35
2017-08-19 12:30;14,75
2017-08-19 12:45;14,35
2017-08-19 13:00;14,95
2017-08-19 13:15;13,65
2017-08-19 13:30;13,9
2017-08-19 13:45;14,05
2017-08-19 14:00;14,1
2017-08-19 14:15;15,5
2017-08-19 14:30;14,2
2017-08-19 14:45;15,7
2017-08-19 15:00;15,6
2017-08-19 15:15;15,7
2017-08-19 15:30;18,3
2017-08-19 15:45;16,8
2017-08-19 16:00;18,6
2017-08-19 16:15;17,6
2017-08-19 16:30;17,9
2017-08-19 16:45;20
2017-08-19 17:00;19,05
2017-08-19 17:15;23,95
2017-08-19 17:30;23,3
2017-08-19 17:45;22,15
2017-08-19 18:00;23,95
2017-08-19 18:15;21,2
2017-08-19 18:30;23
2017-08-19 18:45;23,15
2017-08-19 19:00;19,1
2017-08-19 19:15;16,3
2017-08-19 19:30;16,5
2017-08-19 19:45;13,5
2017-08-19 20:00;13,15
2017-08-19 20:15;12,7
2017-08-19 20:30;12,5
2017-08-19 20:45;10,3
2017-08-19 21:00;11,6
2017-08-19 21:15;12,3
2017-08-19 21:30;14,55
2017-08-19 21:45;15,75
2017-08-19 22:00;15,3
2017-08-19 22:15;19,05
2017-08-19 22:30;20,45
2017-08-19 22:45;21,25
2017-08-19 23:00;15,5
2017-08-19 23:15;12
2017-08-19 23:30;11,55
2017-08-19 23:45;11,4
2017-08-20 00:00;6,05
2017-08-20 00:15;7,5
2017-08-20 00:30;6,75
2017-08-20 00:45;7,5
2017-08-20 01:00;8,35
2017-08-20 01:15;7,6
2017-08-20 01:30;12,3
2017-08-20 01:45;6,6
2017-08-20 02:00;6,8
2017-08-20 02:15;7,95
2017-08-20 02:30;8,8
2017-08-20 02:45;7,2
2017-08-20 03:00;7,25
2017-08-20 03:15;7,9
2017-08-20 03:30;8,7
2017-08-20 03:45;8,3
2017-08-20 04:00;7,25
2017-08-20 04:15;7,3
2017-08-20 04:30;8
2017-08-20 04:45;8,4
2017-08-20 05:00;9,25
2017-08-20 05:15;9,6
2017-08-20 05:30;9
2017-08-20 05:45;9,65
2017-08-20 06:00;8,55
2017-08-20 06:15;9,05
2017-08-20 06:30;7,8
2017-08-20 06:45;8,7
2017-08-20 07:00;9,8
2017-08-20 07:15;9,1
2017-08-20 07:30;10,25
2017-08-20 07:45;9,75
2017-08-20 08:00;9,45
2017-08-20 08:15;8,7
2017-08-20 08:30;12,75
2017-08-20 08:45;12,75
2017-08-20 09:00;16,05
2017-08-20 09:15;19,05
2017-08-20 09:30;17
2017-08-20 09:45;16,75
2017-08-20 10:00;18,45
2017-08-20 10:15;17,15
2017-08-20 10:30;21,1
2017-08-20 10:45;21,5
2017-08-20 11:00;19,8
2017-08-20 11:15;20,05
2017-08-20 11:30;20,7
2017-08-20 11:45;19,75
2017-08-20 12:00;22,3
2017-08-20 12:15;21,1
2017-08-20 12:30;20,45
2017-08-20 12:45;20,35
2017-08-20 13:00;20,1
2017-08-20 13:15;19,2
2017-08-20 13:30;19,3
2017-08-20 13:45;20,05
2017-08-20 14:00;20,05
2017-08-20 14:15;20,2
2017-08-20 14:30;21,25
2017-08-20 14:45;22,35
2017-08-20 15:00;21,75
2017-08-20 15:15;21,5
2017-08-20 15:30;23,6
2017-08-20 15:45;22,5
2017-08-20 16:00;22,7
2017-08-20 16:15;22,75
2017-08-20 16:30;22,35
2017-08-20 16:45;23,7
2017-08-20 17:00;24
2017-08-20 17:15;22,55
2017-08-20 17:30;20,75
2017-08-20 17:45;20,1
2017-08-20 18:00;20,65
2017-08-20 18:15;20,8
2017-08-20 18:30;20,75
2017-08-20 18:45;21,7
2017-08-20 19:00;15,75
2017-08-20 19:15;15,75
2017-08-20 19:30;15,5
2017-08-20 19:45;16,1
2017-08-20 20:00;16,9
2017-08-20 20:15;15,25
2017-08-20 20:30;14,5
2017-08-20 20:45;12,3
2017-08-20 21:00;11,6
2017-08-20 21:15;11,3
2017-08-20 21:30;10,15
2017-08-20 21:45;10,2
2017-08-20 22:00;11
2017-08-20 22:15;15,3
2017-08-20 22:30;16,05
2017-08-20 22:45;14,4
2017-08-20 23:00;10,95
2017-08-20 23:15;5,9
2017-08-20 23:30;5,35
2017-08-20 23:45;9,25

